"2009-07-20 00:00:00",1077409,6.828,55.3,2.414,0.403,23.09,111.0081,27.49,28.49,16.13,0,111.4,13.1,28.33,17.3
"2009-07-20 00:00:30",1077410,7.397,49.17,0.846,0.176,23.14,111.0008,27.47,28.49,16.42,0,111.4,13.1,28.31,11.2
"2009-07-20 00:01:00",1077411,7.193,52.1,3.808,0.557,23.17,110.9893,27.44,28.47,16.36,0,111.4,13.1,28.29,14.1
"2009-07-20 00:01:30",1077412,6.619,52.63,2.381,0.285,23.17,110.9848,27.43,28.46,16.16,0,111.4,13.1,28.27,14.6
"2009-07-20 00:02:00",1077413,7.129,49.41,1.8,0.172,23.17,110.9804,27.41,28.44,16.15,0,111.4,13.1,28.26,11.4
"2009-07-20 00:02:30",1077414,7.07,52.32,1.383,0.36,23.18,110.9764,27.4,28.43,16.1,0,111.4,13.1,28.25,14.3
"2009-07-20 00:03:00",1077415,6.646,51.45,1.828,0.235,23.17,110.9764,27.4,28.42,16.08,0,111.4,13.1,28.25,13.5
"2009-07-20 00:03:30",1077416,6.818,51.01,1.559,0.219,23.17,110.9764,27.4,28.42,16.12,0,111.4,13.1,28.25,13.0
"2009-07-20 00:04:00",1077417,6.827,51.96,2.224,0.235,23.17,110.9686,27.38,28.4,15.84,0,111.4,13.1,28.23,14.0
"2009-07-20 00:04:30",1077418,7.076,53.14,2.095,0.195,23.16,110.9523,27.34,28.39,15.72,0,111.4,13.1,28.19,15.1
"2009-07-20 00:05:00",1077419,7.098,52.21,1.274,0.137,23.17,110.9467,27.33,28.38,15.88,0,111.4,13.1,28.18,14.2
"2009-07-20 00:05:30",1077420,7.095,53.43,0.99,0.116,23.19,110.9428,27.32,28.35,16.01,0,111.4,13.1,28.17,15.4
"2009-07-20 00:06:00",1077421,6.767,54.73,1.061,0.317,23.19,110.9428,27.32,28.35,16.14,0,111.4,13.1,28.17,16.7
"2009-07-20 00:06:30",1077422,6.439,55.31,2.196,0.291,23.18,110.9416,27.31,28.34,16.29,0,111.3,13.09,28.16,17.3
"2009-07-20 00:07:00",1077423,6.683,55.04,3.036,0.377,23.19,110.9276,27.28,28.33,16.37,0,111.4,13.09,28.13,17.0
"2009-07-20 00:07:30",1077424,6.745,57.8,1.338,0.158,23.18,110.9172,27.25,28.32,16.51,0,111.3,13.09,28.10,19.8
"2009-07-20 00:08:00",1077425,6.739,52.37,2.642,0.233,23.21,110.9108,27.24,28.3,16.61,0,111.3,13.09,28.08,14.4
"2009-07-20 00:08:30",1077426,6.343,54.46,2.357,0.169,23.17,110.9091,27.23,28.28,16.66,0,111.3,13.09,28.08,16.5
"2009-07-20 00:09:00",1077427,6.445,55.84,1.251,0.231,23.14,110.9091,27.23,28.28,16.5,0,111.3,13.09,28.08,17.8
"2009-07-20 00:09:30",1077428,6.091,58.04,1.623,0.124,23.18,110.904,27.22,28.26,16.33,0,111.3,13.09,28.06,20.0
"2009-07-20 00:10:00",1077429,5.925,58.18,1.655,0.123,23.18,110.8951,27.2,28.24,16.21,0,111.3,13.09,28.04,20.2
"2009-07-20 00:10:30",1077430,6.518,56.93,1.416,0.224,23.17,110.8858,27.17,28.24,16.28,0,111.3,13.09,28.02,18.9
"2009-07-20 00:11:00",1077431,6.582,58.9,0.918,0.122,23.09,110.8824,27.16,28.23,16.75,0,111.3,13.09,28.01,20.9
"2009-07-20 00:11:30",1077432,6.082,57.85,1.228,0.221,23.07,110.8763,27.15,28.21,16.7,0,111.3,13.1,27.99,19.8
"2009-07-20 00:12:00",1077433,5.904,58.93,0.88,0.076,23.1,110.876,27.15,28.21,16.45,0,111.3,13.1,27.99,20.9
"2009-07-20 00:12:30",1077434,6.069,57.86,1.639,0.205,22.96,110.8754,27.14,28.2,16.92,0,111.3,13.1,27.99,19.9
"2009-07-20 00:13:00",1077435,6.199,56.39,2.453,0.119,22.86,110.8755,27.14,28.19,16.95,0,111.3,13.1,27.99,18.4
"2009-07-20 00:13:30",1077436,5.988,55.87,0.663,0.178,22.85,110.8767,27.15,28.18,16.95,0,111.3,13.1,27.99,17.9
"2009-07-20 00:14:00",1077437,5.87,59.84,1.152,0.136,22.8,110.8749,27.14,28.18,16.97,0,111.3,13.1,27.99,21.8
"2009-07-20 00:14:30",1077438,5.786,59.36,2.218,0.205,22.75,110.874,27.14,28.17,16.97,0,111.3,13.1,27.99,21.4
"2009-07-20 00:15:00",1077439,5.799,55.83,2.073,0.247,22.8,110.8756,27.15,28.16,17.24,0,111.3,13.1,27.99,17.8
"2009-07-20 00:15:30",1077440,6.135,54.09,1.814,0.384,22.81,110.8755,27.14,28.17,16.81,0,111.3,13.1,27.99,16.1
"2009-07-20 00:16:00",1077441,5.781,54.34,0.6,0.079,22.84,110.8773,27.15,28.16,16.33,0,111.3,13.1,28.00,16.3
"2009-07-20 00:16:30",1077442,5.994,55.76,0.753,0.222,22.82,110.8788,27.15,28.16,16.44,0,111.3,13.1,28.00,17.8
"2009-07-20 00:17:00",1077443,5.869,56.05,1.288,0.227,22.8,110.8807,27.16,28.17,16.55,0,111.3,13.1,28.00,18.0
"2009-07-20 00:17:30",1077444,5.646,58.3,0.78,0.071,22.72,110.8829,27.16,28.16,16.73,0,111.3,13.1,28.01,20.3
"2009-07-20 00:18:00",1077445,5.808,60.07,0.901,0.054,22.69,110.8838,27.17,28.17,16.85,0,111.3,13.1,28.01,22.1
"2009-07-20 00:18:30",1077446,5.876,59.88,0.729,0.169,22.7,110.882,27.16,28.17,16.69,0,111.3,13.1,28.01,21.9
"2009-07-20 00:19:00",1077447,5.838,57.9,1.612,0.148,22.69,110.8829,27.16,28.15,16.53,0,111.3,13.1,28.01,19.9
"2009-07-20 00:19:30",1077448,5.636,59.87,1.343,0.128,22.74,110.8829,27.16,28.17,16.48,0,111.3,13.1,28.01,21.9
"2009-07-20 00:20:00",1077449,5.532,61.92,0.709,0.051,22.92,110.8853,27.17,28.19,16.47,0,111.3,13.1,28.02,23.9
"2009-07-20 00:20:30",1077450,5.54,63.09,1.228,0.085,22.94,110.8883,27.18,28.19,16.37,0,111.3,13.1,28.02,25.1
"2009-07-20 00:21:00",1077451,5.326,63.67,1.478,0.123,22.89,110.8919,27.19,28.21,16.52,0,111.3,13.1,28.03,25.7
"2009-07-20 00:21:30",1077452,5.28,63.81,1.447,0.083,22.85,110.8922,27.19,28.2,16.6,0,111.3,13.1,28.03,25.8
"2009-07-20 00:22:00",1077453,4.962,63.67,2.384,0.162,22.98,110.8937,27.19,28.21,16.49,0,111.3,13.1,28.04,25.7
"2009-07-20 00:22:30",1077454,5.258,58.38,2.349,0.068,22.92,110.8931,27.19,28.2,16.53,0,111.3,13.1,28.04,20.4
"2009-07-20 00:23:00",1077455,5.191,63.42,1.591,0.09,22.9,110.8928,27.19,28.21,16.66,0,111.3,13.1,28.04,25.4
"2009-07-20 00:23:30",1077456,5.113,66.79,2.23,0.172,23.02,110.8991,27.21,28.21,16.51,0,111.3,13.1,28.05,28.8
"2009-07-20 00:24:00",1077457,5.418,65.53,1.703,0.205,22.99,110.9008,27.21,28.21,16.49,0,111.3,13.1,28.06,27.5
"2009-07-20 00:24:30",1077458,5.453,64.18,1.363,0.087,22.87,110.9015,27.21,28.22,16.47,0,111.3,13.1,28.06,26.2
"2009-07-20 00:25:00",1077459,5.262,69.16,1.462,0.143,22.88,110.9022,27.21,28.21,16.53,0,111.3,13.1,28.06,31.2
"2009-07-20 00:25:30",1077460,4.945,67.05,4.185,0.15,22.92,110.9017,27.21,28.22,16.56,0,111.3,13.1,28.06,29.1
"2009-07-20 00:26:00",1077461,5.042,69.36,1.756,0.134,22.98,110.9015,27.21,28.21,16.52,0,111.3,13.1,28.06,31.4
"2009-07-20 00:26:30",1077462,5.047,71.16,1.19,0.087,22.95,110.8966,27.2,28.22,16.33,0,111.3,13.1,28.05,33.2
"2009-07-20 00:27:00",1077463,4.896,73.61,1.31,0.112,22.91,110.899,27.21,28.22,16.36,0,111.3,13.1,28.05,35.6
"2009-07-20 00:27:30",1077464,4.821,74.13,0.962,0.093,22.89,110.8955,27.2,28.21,16.35,0,111.3,13.1,28.04,36.1
"2009-07-20 00:28:00",1077465,5.114,72.36,1.229,0.112,22.87,110.8975,27.2,28.21,16.31,0,111.3,13.1,28.05,34.4
"2009-07-20 00:28:30",1077466,4.977,71.25,1.356,0.102,22.84,110.8969,27.2,28.21,16.25,0,111.3,13.1,28.05,33.2
"2009-07-20 00:29:00",1077467,4.773,71.53,0.811,0.071,22.86,110.8984,27.2,28.2,16.35,0,111.3,13.1,28.05,33.5
"2009-07-20 00:29:30",1077468,4.648,73.86,1.666,0.122,22.71,110.8981,27.2,28.21,16.53,0,111.3,13.1,28.05,35.9
"2009-07-20 00:30:00",1077469,4.953,75.41,1.228,0.064,22.69,110.8965,27.2,28.22,16.48,0,111.3,13.11,28.05,37.4
"2009-07-20 00:30:30",1077470,4.82,75.3,1.317,0.063,22.7,110.9011,27.21,28.21,16.3,0,111.3,13.11,28.06,37.3
"2009-07-20 00:31:00",1077471,4.618,76.78,0.902,0.074,22.78,110.9019,27.21,28.23,16.26,0,111.3,13.11,28.06,38.8
"2009-07-20 00:31:30",1077472,4.673,77.64,1.152,0.11,22.89,110.9027,27.21,28.21,16.25,0,111.3,13.11,28.06,39.6
"2009-07-20 00:32:00",1077473,4.512,77.21,1.28,0.083,22.92,110.9075,27.23,28.21,16.25,0,111.3,13.11,28.07,39.2
"2009-07-20 00:32:30",1077474,4.407,76.64,0.665,0.061,22.93,110.9051,27.22,28.22,16.2,0,111.3,13.11,28.07,38.6
"2009-07-20 00:33:00",1077475,4.348,76,0.862,0.082,22.88,110.9097,27.23,28.22,16.4,0,111.3,13.11,28.08,38.0
"2009-07-20 00:33:30",1077476,4.098,73.6,2.479,0.192,22.79,110.9148,27.25,28.23,16.53,0,111.3,13.11,28.09,35.6
"2009-07-20 00:34:00",1077477,3.876,71.52,3.548,0.15,22.81,110.9196,27.26,28.23,16.97,0,111.3,13.11,28.11,33.5
"2009-07-20 00:34:30",1077478,4.334,73.11,3.059,0.223,22.89,110.925,27.27,28.25,17.2,0,111.3,13.11,28.12,35.1
"2009-07-20 00:35:00",1077479,4.341,70.4,1.602,0.113,22.91,110.9269,27.28,28.25,16.85,0,111.3,13.11,28.12,32.4
"2009-07-20 00:35:30",1077480,4.47,67.41,2.046,0.097,22.89,110.9303,27.29,28.25,16.85,0,111.3,13.11,28.13,29.4
"2009-07-20 00:36:00",1077481,4.491,67.85,3.113,0.094,22.92,110.9319,27.29,28.26,16.87,0,111.3,13.11,28.14,29.8
"2009-07-20 00:36:30",1077482,4.327,69.1,2.13,0.115,22.95,110.9327,27.29,28.27,16.89,0,111.3,13.11,28.14,31.1
"2009-07-20 00:37:00",1077483,4.144,71.82,2.032,0.277,22.97,110.9341,27.3,28.25,17.07,0,111.3,13.11,28.14,33.8
"2009-07-20 00:37:30",1077484,4.298,75.63,2.288,0.341,23,110.933,27.29,28.26,17.17,0,111.3,13.11,28.14,37.6
"2009-07-20 00:38:00",1077485,4.255,78.84,1.266,0.092,23.11,110.9302,27.29,28.26,17.02,0,111.3,13.11,28.13,40.8
"2009-07-20 00:38:30",1077486,3.785,78.72,3.868,0.288,23.04,110.9308,27.29,28.27,17.17,0,111.3,13.11,28.13,40.7
"2009-07-20 00:39:00",1077487,3.383,76.67,3.774,0.509,23.05,110.9306,27.29,28.27,17.51,0,111.3,13.1,28.13,38.7
"2009-07-20 00:39:30",1077488,3.982,75.26,1.245,0.079,23.03,110.9199,27.26,28.26,17.26,0,111.3,13.1,28.11,37.3
"2009-07-20 00:40:00",1077489,4.104,78.84,1.295,0.128,23.1,110.9149,27.25,28.27,17.19,0,111.3,13.1,28.09,40.8
"2009-07-20 00:40:30",1077490,3.905,75.18,2.014,0.111,23.04,110.9127,27.24,28.25,17.23,0,111.3,13.1,28.09,37.2
"2009-07-20 00:41:00",1077491,3.879,79.68,4.222,0.226,23.04,110.9101,27.23,28.24,17.42,0,111.3,13.1,28.08,41.7
"2009-07-20 00:41:30",1077492,3.647,80.4,5.653,0.314,23.01,110.9074,27.23,28.25,17.72,0,111.3,13.1,28.07,42.4
"2009-07-20 00:42:00",1077493,3.939,76.76,2.536,0.152,23.1,110.9037,27.22,28.24,17.51,0,111.3,13.1,28.06,38.8
"2009-07-20 00:42:30",1077494,3.712,75.4,2.733,0.122,23.08,110.9037,27.22,28.23,17.4,0,111.3,13.1,28.06,37.4
"2009-07-20 00:43:00",1077495,3.565,70.48,4.08,0.31,23.09,110.904,27.22,28.22,17.59,0,111.3,13.1,28.06,32.5
"2009-07-20 00:43:30",1077496,3.494,73.47,4.827,0.287,23.12,110.9034,27.22,28.21,17.82,0,111.3,13.1,28.06,35.5
"2009-07-20 00:44:00",1077497,3.643,67.68,6.886,0.258,23.1,110.9035,27.22,28.21,17.79,0,111.3,13.1,28.06,29.7
"2009-07-20 00:44:30",1077498,3.666,66.22,4.243,0.369,23.08,110.9034,27.22,28.21,17.87,0,111.3,13.1,28.06,28.2
"2009-07-20 00:45:00",1077499,4.269,69.99,2.498,0.24,23.08,110.8879,27.18,28.2,17.77,0,111.3,13.1,28.02,32.0
"2009-07-20 00:45:30",1077500,4.192,70.03,4.328,0.313,23.1,110.8794,27.15,28.18,17.83,0,111.3,13.1,28.00,32.0
"2009-07-20 00:46:00",1077501,4.107,68.69,2.061,0.161,23.12,110.8773,27.15,28.19,17.93,0,111.3,13.1,28.00,30.7
"2009-07-20 00:46:30",1077502,3.818,66.06,1.944,0.179,23.08,110.875,27.14,28.17,17.92,0,111.3,13.1,27.99,28.1
"2009-07-20 00:47:00",1077503,3.382,63.65,3.469,0.224,23.02,110.8757,27.15,28.17,18,0,111.3,13.1,27.99,25.7
"2009-07-20 00:47:30",1077504,3.96,59.37,1.622,0.176,23.04,110.8748,27.14,28.16,18.1,0,111.3,13.11,27.99,21.4
"2009-07-20 00:48:00",1077505,4.548,63.95,2.022,0.367,23.08,110.8755,27.14,28.14,18.17,0,111.3,13.11,27.99,26.0
"2009-07-20 00:48:30",1077506,4.685,60.47,1.778,0.108,23.08,110.8644,27.12,28.12,17.78,0,111.3,13.11,27.96,22.5
"2009-07-20 00:49:00",1077507,4.603,56.51,2.649,0.165,23.06,110.8532,27.09,28.14,17.97,0,111.3,13.11,27.93,18.5
"2009-07-20 00:49:30",1077508,4.396,56.33,1.981,0.173,23.01,110.8454,27.07,28.11,18.51,0,111.3,13.11,27.91,18.3
"2009-07-20 00:50:00",1077509,4.191,55.36,3.554,0.3,23.02,110.8454,27.07,28.1,18.45,0,111.3,13.11,27.91,17.4
"2009-07-20 00:50:30",1077510,4.404,58.9,2.797,0.261,23.07,110.8443,27.06,28.08,18.49,0,111.3,13.11,27.91,20.9
"2009-07-20 00:51:00",1077511,4.004,56.7,4.832,0.413,23.02,110.8272,27.02,28.07,18.55,0,111.3,13.11,27.87,18.7
"2009-07-20 00:51:30",1077512,3.829,61.26,2.773,0.084,23,110.817,26.99,28.05,18.84,0,111.3,13.11,27.84,23.3
"2009-07-20 00:52:00",1077513,3.962,60.45,4.167,0.39,23.01,110.8117,26.98,28.04,18.95,0,111.3,13.11,27.83,22.5
"2009-07-20 00:52:30",1077514,4.736,61.06,1.045,0.176,23.01,110.8117,26.98,28.03,18.04,0,111.3,13.11,27.83,23.1
"2009-07-20 00:53:00",1077515,5.059,64.24,2.912,0.1,23.08,110.8114,26.98,28,17.9,0,111.3,13.11,27.83,26.2
"2009-07-20 00:53:30",1077516,5.131,60.59,1.576,0.221,23,110.8016,26.95,27.99,17.96,0,111.3,13.11,27.80,22.6
"2009-07-20 00:54:00",1077517,5.415,56.73,1.678,0.09,22.86,110.7895,26.92,27.97,18.54,0,111.3,13.11,27.77,18.7
"2009-07-20 00:54:30",1077518,5.509,60.31,0.919,0.073,23,110.7794,26.9,27.97,18.64,0,111.3,13.11,27.74,22.3
"2009-07-20 00:55:00",1077519,5.483,61.39,1.508,0.081,22.99,110.7777,26.89,27.95,18.5,0,111.3,13.11,27.74,23.4
"2009-07-20 00:55:30",1077520,5.785,63.43,1.499,0.144,22.99,110.7643,26.86,27.93,18.66,0,111.3,13.12,27.70,25.4
"2009-07-20 00:56:00",1077521,5.906,61.24,1.029,0.102,22.96,110.7488,26.82,27.91,18.46,0,111.3,13.12,27.66,23.2
"2009-07-20 00:56:30",1077522,5.6,62.19,2.179,0.153,22.98,110.7444,26.81,27.9,18.5,0,111.3,13.12,27.65,24.2
"2009-07-20 00:57:00",1077523,5.718,63.38,1.89,0.074,22.99,110.7438,26.81,27.87,18.59,0,111.3,13.12,27.65,25.4
"2009-07-20 00:57:30",1077524,5.823,62.8,1.786,0.109,23,110.7272,26.76,27.85,18.71,0,111.3,13.12,27.61,24.8
"2009-07-20 00:58:00",1077525,5.711,62.89,0.547,0.093,23.03,110.7143,26.73,27.83,18.87,0,111.3,13.11,27.58,24.9
"2009-07-20 00:58:30",1077526,5.786,64.24,1.049,0.11,22.97,110.7107,26.72,27.82,19.07,0,111.3,13.11,27.57,26.2
"2009-07-20 00:59:00",1077527,5.559,66.71,1.372,0.096,23.01,110.709,26.72,27.8,19.36,0,111.3,13.11,27.56,28.7
"2009-07-20 00:59:30",1077528,5.422,66.72,1.193,0.078,23.01,110.6893,26.67,27.8,19.34,0,111.3,13.11,27.51,28.7
"2009-07-20 01:00:00",1077529,5.788,63.75,1.603,0.11,22.99,110.6795,26.64,27.76,19.25,0,111.3,13.11,27.49,25.8
"2009-07-20 01:00:30",1077530,5.579,64.29,0.878,0.119,22.99,110.677,26.63,27.75,19.09,0,111.2,13.11,27.48,26.3
"2009-07-20 01:01:00",1077531,5.708,62.75,1.479,0.122,23.05,110.6759,26.63,27.72,19.09,0,111.2,13.11,27.48,24.8
"2009-07-20 01:01:30",1077532,5.653,62.61,0.559,0.117,23.08,110.6599,26.59,27.71,19.07,0,111.2,13.11,27.44,24.6
"2009-07-20 01:02:00",1077533,5.467,61.63,1.381,0.122,23.06,110.6459,26.55,27.69,19.08,0,111.2,13.11,27.40,23.6
"2009-07-20 01:02:30",1077534,5.249,62.92,0.719,0.098,23.04,110.6439,26.55,27.66,19.21,0,111.2,13.11,27.39,24.9
"2009-07-20 01:03:00",1077535,4.907,65.41,2.305,0.123,23.11,110.6446,26.55,27.66,19.21,0,111.2,13.11,27.40,27.4
"2009-07-20 01:03:30",1077536,4.811,65.14,1.201,0.08,23.19,110.6363,26.53,27.63,19.14,0,111.2,13.12,27.37,27.1
"2009-07-20 01:04:00",1077537,4.874,65.89,1.079,0.08,23.17,110.6259,26.5,27.6,19.06,0,111.2,13.12,27.35,27.9
"2009-07-20 01:04:30",1077538,4.719,65.74,0.893,0.062,23.12,110.6218,26.49,27.6,19.02,0,111.2,13.12,27.34,27.7
"2009-07-20 01:05:00",1077539,4.798,62.61,1.872,0.073,23.07,110.6221,26.49,27.59,19.1,0,111.2,13.12,27.34,24.6
"2009-07-20 01:05:30",1077540,4.679,60.68,0.622,0.06,23.03,110.6227,26.49,27.58,19.27,0,111.2,13.12,27.34,22.7
"2009-07-20 01:06:00",1077541,4.853,60.36,0.949,0.119,22.98,110.6271,26.51,27.55,19.37,0,111.2,13.12,27.35,22.4
"2009-07-20 01:06:30",1077542,4.818,63.17,0.918,0.094,23.01,110.6282,26.51,27.54,19.47,0,111.2,13.12,27.35,25.2
"2009-07-20 01:07:00",1077543,4.738,62.9,1.614,0.115,23.02,110.6222,26.49,27.52,19.44,0,111.2,13.12,27.34,24.9
"2009-07-20 01:07:30",1077544,4.674,63.1,1.858,0.113,23.04,110.6098,26.46,27.51,19.43,0,111.2,13.12,27.31,25.1
"2009-07-20 01:08:00",1077545,4.68,65.25,1.258,0.076,23.01,110.6035,26.45,27.5,19.65,0,111.2,13.12,27.29,27.2
"2009-07-20 01:08:30",1077546,4.526,62.5,0.899,0.088,23.06,110.6033,26.44,27.48,19.68,0,111.2,13.12,27.29,24.5
"2009-07-20 01:09:00",1077547,4.535,59.78,1.708,0.083,23.01,110.6036,26.45,27.48,19.68,0,111.2,13.12,27.29,21.8
"2009-07-20 01:09:30",1077548,4.737,61.27,0.807,0.168,23.06,110.6036,26.45,27.47,19.73,0,111.2,13.12,27.29,23.3
"2009-07-20 01:10:00",1077549,4.795,59.34,2.026,0.141,23.03,110.5932,26.42,27.45,19.78,0,111.2,13.12,27.26,21.3
"2009-07-20 01:10:30",1077550,4.98,56.35,1.71,0.079,22.94,110.5786,26.38,27.44,20.03,0,111.2,13.12,27.23,18.3
"2009-07-20 01:11:00",1077551,4.786,59.66,2.943,0.192,22.9,110.5744,26.37,27.44,20.27,0,111.2,13.12,27.21,21.7
"2009-07-20 01:11:30",1077552,4.617,60.97,2.049,0.252,22.84,110.5717,26.36,27.42,20.54,0,111.2,13.12,27.21,23.0
"2009-07-20 01:12:00",1077553,5.276,58.38,2.629,0.184,22.85,110.5717,26.36,27.41,20.44,0,111.2,13.12,27.21,20.4
"2009-07-20 01:12:30",1077554,4.913,53.72,2.222,0.141,22.87,110.5705,26.36,27.41,20.46,0,111.2,13.12,27.20,15.7
"2009-07-20 01:13:00",1077555,4.775,53.95,0.998,0.198,22.85,110.5641,26.34,27.37,20.51,0,111.2,13.13,27.19,16.0
"2009-07-20 01:13:30",1077556,4.737,54.53,0.782,0.059,22.92,110.5501,26.31,27.38,20.04,0,111.2,13.12,27.15,16.5
"2009-07-20 01:14:00",1077557,4.663,57.06,1.211,0.059,22.91,110.5446,26.29,27.35,20.04,0,111.2,13.13,27.14,19.1
"2009-07-20 01:14:30",1077558,4.496,55.66,1.052,0.086,22.89,110.5455,26.3,27.35,20.14,0,111.2,13.13,27.14,17.7
"2009-07-20 01:15:00",1077559,4.323,54.04,0.955,0.089,22.94,110.5424,26.29,27.33,19.84,0,111.2,13.12,27.13,16.0
"2009-07-20 01:15:30",1077560,4.202,49.24,1.519,0.201,22.87,110.5301,26.26,27.32,20.18,0,111.2,13.12,27.10,11.2
"2009-07-20 01:16:00",1077561,3.795,49.28,1.484,0.106,22.82,110.5194,26.23,27.28,20.66,0,111.2,13.12,27.07,11.3
"2009-07-20 01:16:30",1077562,3.542,47.83,1.474,0.111,22.87,110.5121,26.21,27.28,20.57,0,111.2,13.12,27.05,9.8
"2009-07-20 01:17:00",1077563,3.814,45.79,2.113,0.171,22.89,110.5121,26.21,27.27,20.39,0,111.2,13.12,27.05,7.8
"2009-07-20 01:17:30",1077564,3.761,46.67,0.711,0.143,22.95,110.5121,26.21,27.26,20.26,0,111.2,13.12,27.05,8.7
"2009-07-20 01:18:00",1077565,3.318,44.86,0.768,0.089,22.88,110.5068,26.2,27.24,20.44,0,111.2,13.12,27.04,6.9
"2009-07-20 01:18:30",1077566,3.431,43.39,0.815,0.039,22.99,110.488,26.15,27.22,20.09,0,111.2,13.12,26.99,5.4
"2009-07-20 01:19:00",1077567,3.274,38.21,1.351,0.089,22.9,110.4835,26.14,27.21,20.07,0,111.2,13.12,26.98,0.2
"2009-07-20 01:19:30",1077568,2.818,33.32,2.77,0.427,22.9,110.4784,26.12,27.18,20.05,0,111.2,13.13,26.97,355.3
"2009-07-20 01:20:00",1077569,2.451,25.16,3.07,0.244,22.89,110.4784,26.12,27.17,20,0,111.2,13.13,26.97,347.2
"2009-07-20 01:20:30",1077570,2.706,20.7,2.452,0.17,22.85,110.4784,26.12,27.16,19.96,0,111.2,13.13,26.97,342.7
"2009-07-20 01:21:00",1077571,2.47,17.91,2.602,0.307,22.86,110.4753,26.12,27.16,20.15,0,111.2,13.13,26.96,339.9
"2009-07-20 01:21:30",1077572,1.703,12.16,8.06,0.69,22.83,110.4638,26.09,27.14,20.1,0,111.2,13.13,26.93,334.2
"2009-07-20 01:22:00",1077573,0.945,359.5,11.15,0.442,22.8,110.454,26.06,27.12,20.63,0,111.2,13.13,26.90,321.5
"2009-07-20 01:22:30",1077574,3.474,338,8.54,0.653,22.82,110.4509,26.05,27.12,21.07,0,111.2,13.13,26.90,300.0
"2009-07-20 01:23:00",1077575,4.631,318.6,6.082,0.45,22.85,110.4447,26.04,27.1,21.15,0,111.2,13.13,26.88,280.6
"2009-07-20 01:23:30",1077576,8.39,302.1,5.285,3.196,19.81,110.4332,26.01,27.06,22.42,0,111.2,13.13,26.85,264.1
"2009-07-20 01:24:00",1077577,15.26,298.4,5.118,0.907,21.36,110.4108,25.95,27,23.98,0,111.2,13.13,26.79,260.4
"2009-07-20 01:24:30",1077578,15.44,294.8,3.041,0.822,21.39,110.3936,25.91,26.97,24.58,0,111.2,13.14,26.75,256.8
"2009-07-20 01:25:00",1077579,14.41,293.2,4.409,1.39,21.83,110.3594,25.82,26.95,24.46,0,111.2,13.14,26.66,255.2
"2009-07-20 01:25:30",1077580,15.57,289.5,2.938,0.856,21.65,110.3131,25.7,26.87,24.47,0,111.2,13.14,26.54,251.5
"2009-07-20 01:26:00",1077581,17.78,284,1.574,1.108,16.15,110.253,25.54,26.79,24.79,0,111.2,13.14,26.39,246.0
"2009-07-20 01:26:30",1077582,16.52,283.6,2.841,0.785,21.85,110.1783,25.35,26.69,25.1,0,111.2,13.14,26.19,245.6
"2009-07-20 01:27:00",1077583,15.95,278.3,4.304,0.793,19.29,110.0954,25.14,26.54,25.79,0,111.2,13.14,25.98,240.3
"2009-07-20 01:27:30",1077584,13.99,265.2,5.213,1.299,19.38,109.994,24.88,26.41,26.2,0,111.2,13.14,25.72,227.2
"2009-07-20 01:28:00",1077585,13.2,276.3,6.491,0.763,21.79,109.9055,24.65,26.24,26.58,0,111.2,13.14,25.49,238.3
"2009-07-20 01:28:30",1077586,12.53,273.3,4.166,1.582,19.09,109.8269,24.45,26.07,27.09,0,111.2,13.14,25.29,235.3
"2009-07-20 01:29:00",1077587,14.86,282.9,6.591,0.884,21.79,109.7526,24.26,25.91,27.75,0,111.2,13.14,25.10,244.9
"2009-07-20 01:29:30",1077588,12.57,274,8.39,2.201,21.23,109.6871,24.09,25.74,28.71,0,111.2,13.14,24.93,236.0
"2009-07-20 01:30:00",1077589,11.44,277.8,8.14,1.694,15.4,109.618,23.91,25.57,29.83,0,111.2,13.14,24.75,239.8
"2009-07-20 01:30:30",1077590,12.95,291,3.852,1.825,19.06,109.5564,23.75,25.41,30.03,0,111.2,13.14,24.59,253.0
"2009-07-20 01:31:00",1077591,15.71,291.3,3.062,0.584,22.12,109.5021,23.62,25.27,28.51,0,111.2,13.14,24.45,253.3
"2009-07-20 01:31:30",1077592,16.73,295.3,2.892,0.994,23.52,109.4475,23.48,25.09,28.63,0,111.2,13.14,24.31,257.3
"2009-07-20 01:32:00",1077593,14.38,293.1,5.523,0.813,7.356,109.4054,23.37,24.94,27.77,0,111.2,13.14,24.20,255.1
"2009-07-20 01:32:30",1077594,15.19,293,4.705,1.33,12.82,109.3673,23.27,24.79,28.31,0,111.2,13.14,24.10,255.0
"2009-07-20 01:33:00",1077595,12.36,296.3,8.56,0.556,10.96,109.3377,23.19,24.67,27.59,0,111.1,13.14,24.03,258.3
"2009-07-20 01:33:30",1077596,12.16,290.3,10.09,1.058,16.04,109.3202,23.15,24.57,28.09,0,111.1,13.14,23.98,252.3
"2009-07-20 01:34:00",1077597,9.99,301.2,3.806,0.608,23.76,109.3023,23.1,24.48,26.72,0,111.1,13.14,23.93,263.2
"2009-07-20 01:34:30",1077598,7.88,304.3,2.849,0.755,23.87,109.2967,23.09,24.4,26.46,0,111.1,13.14,23.92,266.3
"2009-07-20 01:35:00",1077599,6.899,300.4,3.15,0.621,23.58,109.2799,23.04,24.33,26.25,0,111.1,13.14,23.88,262.4
"2009-07-20 01:35:30",1077600,7.034,294,7.689,0.7,20.41,109.2773,23.04,24.3,26.44,0,111.1,13.14,23.87,256.0
"2009-07-20 01:36:00",1077601,7.586,272.3,7.889,0.635,22.47,109.2945,23.08,24.27,28.02,0,111.1,13.14,23.91,234.3
"2009-07-20 01:36:30",1077602,7.781,281.3,4.52,1.284,22.04,109.3023,23.1,24.25,28.46,0,111.1,13.14,23.93,243.3
"2009-07-20 01:37:00",1077603,9.15,274.4,4.515,1.233,16.49,109.3034,23.11,24.23,29.07,0,111.1,13.14,23.94,236.4
"2009-07-20 01:37:30",1077604,10.71,279.2,3.128,0.856,21.42,109.3057,23.11,24.22,29.22,0,111.1,13.15,23.94,241.2
"2009-07-20 01:38:00",1077605,9.7,277.7,9.25,0.84,21.74,109.3032,23.1,24.23,28.88,0,111.1,13.15,23.94,239.7
"2009-07-20 01:38:30",1077606,9.28,279.7,11.26,1.179,21.63,109.3069,23.11,24.21,28.61,0,111.1,13.15,23.95,241.7
"2009-07-20 01:39:00",1077607,8.29,278.1,6.047,0.841,19.36,109.3146,23.13,24.19,28.32,0,111.1,13.15,23.97,240.1
"2009-07-20 01:39:30",1077608,10.69,274.4,6.714,1.037,21.6,109.3209,23.15,24.2,28.62,0,111.1,13.15,23.98,236.4
"2009-07-20 01:40:00",1077609,11.87,277,5.345,0.93,22.36,109.3278,23.17,24.19,28.74,0,111.1,13.15,24.00,239.0
"2009-07-20 01:40:30",1077610,12.41,272.1,2.78,0.33,18.92,109.3293,23.17,24.17,28.85,0,111.1,13.15,24.00,234.1
"2009-07-20 01:41:00",1077611,12.67,268.4,1.374,0.348,21.45,109.33,23.17,24.17,29.15,0,111.1,13.16,24.01,230.4
"2009-07-20 01:41:30",1077612,13.37,268.6,2.043,0.34,21.53,109.3303,23.17,24.17,29,0,111,13.16,24.01,230.6
"2009-07-20 01:42:00",1077613,13.38,263.4,2.403,0.369,22.07,109.3164,23.14,24.15,28.79,0,111,13.16,23.97,225.4
"2009-07-20 01:42:30",1077614,12.59,260.8,6.448,1.256,22.05,109.304,23.11,24.15,28.47,0,111,13.16,23.94,222.8
"2009-07-20 01:43:00",1077615,10.91,267.8,3.313,1.62,19.65,109.3039,23.11,24.13,28,0,111,13.16,23.94,229.8
"2009-07-20 01:43:30",1077616,13.6,266.5,2.51,0.55,21.82,109.3052,23.11,24.11,28,0,111,13.16,23.94,228.5
"2009-07-20 01:44:00",1077617,12.51,265.2,3.472,0.672,21.59,109.3055,23.11,24.09,27.97,0,111,13.16,23.94,227.2
"2009-07-20 01:44:30",1077618,11.59,270.4,2.241,0.431,22.23,109.306,23.11,24.08,27.72,0,111,13.16,23.94,232.4
"2009-07-20 01:45:00",1077619,12.37,268.1,1.167,0.305,21.89,109.313,23.13,24.07,27.8,0,111,13.16,23.96,230.1
"2009-07-20 01:45:30",1077620,11.53,266.1,1.918,0.361,22.18,109.3246,23.16,24.09,27.78,0,111,13.16,23.99,228.1
"2009-07-20 01:46:00",1077621,11.14,263.2,1.669,0.355,22.31,109.3383,23.19,24.1,27.86,0,111,13.16,24.03,225.2
"2009-07-20 01:46:30",1077622,11.43,259.4,1.924,0.426,22.06,109.3392,23.2,24.1,27.62,0,111,13.16,24.03,221.4
"2009-07-20 01:47:00",1077623,12.15,256.9,1.722,0.349,22.39,109.3392,23.2,24.12,27.68,0,111,13.16,24.03,218.9
"2009-07-20 01:47:30",1077624,12.04,258.2,1.775,0.409,22.35,109.3395,23.2,24.14,27.71,0,111,13.17,24.03,220.2